Location: Chmeln�
(49.6483°N, 14.9871°E)
Time: 06:26:20
(UTC+00:00)

Lacrosse 5 rocket - Pass Details

Date: 19 January 2021
Orbit: 465 x 630 km, 57.0° (Epoch: 06 March)

Event Time Altitude Azimuth Distance (km) Brightness Sun altitude
Exits shadow 05:22:42 22° 301° (WNW) 1,169 2.4 -13.5°
Maximum altitude 05:25:10 81° 216° (SW) 513 1.1 -13.1°
Drops below altitude 10° 05:28:54 10° 129° (SE) 1,668 4.9 -12.5°
Sets 05:31:00 0° 128° (SE) 2,526 6.1 -12.2°
